TimeEDT,TemperatureF,Dew PointF,Humidity,Sea Level PressureIn,VisibilityMPH,Wind Direction,Wind SpeedMPH,Gust SpeedMPH,PrecipitationIn,Events,Conditions,WindDirDegrees,DateUTC
12:56 AM,57.0,34.0,42,30.00,10.0,West,4.6,-,N/A,,Clear,280,2013-04-02 04:56:00
1:56 AM,55.0,35.1,47,30.01,10.0,West,3.5,-,N/A,,Clear,270,2013-04-02 05:56:00
2:56 AM,51.1,36.0,56,30.02,10.0,WSW,4.6,-,N/A,,Clear,250,2013-04-02 06:56:00
3:56 AM,50.0,37.0,61,30.02,10.0,WNW,3.5,-,N/A,,Clear,290,2013-04-02 07:56:00
4:56 AM,50.0,36.0,59,30.04,10.0,WNW,3.5,-,N/A,,Clear,290,2013-04-02 08:56:00
5:56 AM,46.9,36.0,66,30.06,10.0,Calm,Calm,-,N/A,,Clear,0,2013-04-02 09:56:00
6:56 AM,43.0,36.0,76,30.09,10.0,NNE,3.5,-,N/A,,Clear,30,2013-04-02 10:56:00
7:56 AM,44.1,39.0,82,30.14,10.0,Calm,Calm,-,N/A,,Clear,0,2013-04-02 11:56:00
8:56 AM,52.0,37.0,57,30.15,10.0,NE,5.8,-,N/A,,Clear,50,2013-04-02 12:56:00
9:56 AM,55.0,34.0,45,30.16,10.0,NE,10.4,-,N/A,,Clear,40,2013-04-02 13:56:00
10:56 AM,57.9,34.0,41,30.16,10.0,Calm,Calm,-,N/A,,Clear,0,2013-04-02 14:56:00
11:56 AM,-9999,-9999,N/A,30.16,-9999.0,North,-9999.0,-,N/A,,Unknown,0,2013-04-02 15:56:00
12:56 PM,64.0,35.1,34,30.13,10.0,Variable,3.5,-,N/A,,Clear,0,2013-04-02 16:56:00
1:56 PM,64.9,35.1,33,30.11,10.0,Variable,5.8,-,N/A,,Clear,0,2013-04-02 17:56:00
2:56 PM,68.0,36.0,31,30.07,10.0,WNW,5.8,-,N/A,,Clear,290,2013-04-02 18:56:00
3:56 PM,69.1,33.1,26,30.05,10.0,WSW,12.7,18.4,N/A,,Clear,240,2013-04-02 19:56:00
4:56 PM,70.0,30.9,24,30.04,10.0,Variable,6.9,-,N/A,,Clear,0,2013-04-02 20:56:00
5:56 PM,69.1,32.0,25,30.04,10.0,West,10.4,-,N/A,,Partly Cloudy,260,2013-04-02 21:56:00
6:56 PM,69.1,33.1,26,30.04,10.0,SW,12.7,-,N/A,,Mostly Cloudy,230,2013-04-02 22:56:00
7:56 PM,64.0,35.1,34,30.06,10.0,WSW,5.8,-,N/A,,Scattered Clouds,240,2013-04-02 23:56:00
8:56 PM,63.0,36.0,37,30.07,10.0,WSW,3.5,-,N/A,,Scattered Clouds,240,2013-04-03 00:56:00
9:56 PM,63.0,37.9,40,30.08,10.0,WSW,5.8,-,N/A,,Mostly Cloudy,250,2013-04-03 01:56:00
10:56 PM,61.0,37.0,41,30.09,10.0,Calm,Calm,-,N/A,,Partly Cloudy,0,2013-04-03 02:56:00
11:56 PM,60.1,33.1,36,30.12,10.0,West,3.5,-,N/A,,Overcast,280,2013-04-03 03:56:00